SL-16 DEB, 22421

Orbit data source: Space-Track

SL-16 DEB, 22421 is space debris in LEO originally from a launch on Fri, 25 Dec 1992 UTC launched from the Tyuratam Missile And Space Complex (TTMTR). Debris objects in space refer to the collection of defunct objects orbiting the Earth. Examples of debris include non-operational satellites, rocket bodies, and fragments generated from explosions, collisions, or faulty payload assembly.

Loading next visibility...
Identifier
22421, 1992-093DN
Orbit
LEO
Country
Flag of CISCIS
Related business
Manufacturer
Unknown
Mission
Spacecraft
Bus & Motor
Unknown
Mass
Unknown
Launch date (UTC)
1992-12-25 (33 years ago)
Launch vehicle
Unknown
Launch site
Tyuratam Missile And Space Complex (TTMTR)
Object type
Payload
Rocket body
Debris
Shape & HBR
Unknown shape, 0.1 m
Radar Cross Section
Small (<0.1 m²)

Expand to show TLE details & history
Last TLE update: 7 hours ago

TLE from 7 hours ago
0 SL-16 DEB
1 22421U 92093DN  26133.18096727 -.00000159  00000-0 -59073-4 0  9994
2 22421  71.0354 198.3235 0092304   0.5549  30.1652 14.11661757712179
Epoch: 2026-05-13T04:20Z
TLE epoch observation values (Epoch: 2026-05-13T04:20:35.572Z)
Latitude
29.4466°
Longitude
-86.64351°
Altitude
799.275 km
Speed
7.486 km/s
True Right ascension
13h 57m 47s
True Declination
29° 18' 02"
Sunlit
Object was in full shadow at epoch
Visualization orbit readout
Latitude
Unknown
Longitude
Unknown
Altitude
Unknown
Speed
Unknown
Apparent Right ascension
Unknown
Apparent Declination
Unknown
Sunlit
N/A
Visualization observer readout
Local Sidereal Time
19:35:06
Azimuth
Unknown
Elevation
Unknown
Doppler factor
Unknown
Orbital elements
Apogee altitude
918.349 km
Perigee altitude
784.882 km
Semi-major axis
7,229.752 km
Eccentricity
0.00923
Inclination
71.0354°
RAAN
198.3235°
Arg. of periapsis
0.5549°
True anomaly
30.70205°
Mean anomaly
30.1652°
Eccentric anomaly
30.43309°
Mean motion
3.53068 °/min
Orbital period
101.96 mins
BSTAR
-0.000059073
Loading maneuver chart data...
Computing Atmospheric mass density...
Loading historical data...
Loading historical data...
Loading historical data...
Loading historical data...
Loading historical data...
Loading historical data...
Loading historical data...

Documentation

Showing up to 5 results
|